Year,Month,Day,Hour,Minute,Value (Times are PST for temperature in C)
2008,09,28,00,00,10.60
2008,09,28,00,01,10.60
2008,09,28,00,02,10.60
2008,09,28,00,03,10.50
2008,09,28,00,04,10.50
2008,09,28,00,05,10.50
2008,09,28,00,06,10.50
2008,09,28,00,07,10.50
2008,09,28,00,08,10.50
2008,09,28,00,09,10.50
2008,09,28,00,10,10.50
2008,09,28,00,11,10.50
2008,09,28,00,12,10.50
2008,09,28,00,13,10.50
2008,09,28,01,02,10.10
2008,09,28,01,03,10.10
2008,09,28,01,04,10.10
2008,09,28,01,05,10.10
2008,09,28,01,06,10.10
2008,09,28,01,07,10.10
2008,09,28,01,08,10.10
2008,09,28,01,09,10.10
2008,09,28,01,10,10.10
2008,09,28,01,11,10.10
2008,09,28,01,12,10.10
2008,09,28,01,13,10.10
2008,09,28,01,14,10.10
2008,09,28,01,15,10.00
2008,09,28,01,16,10.00
2008,09,28,01,17,10.00
2008,09,28,01,18,10.00
2008,09,28,01,19,10.00
2008,09,28,01,20,10.00
2008,09,28,01,21,9.90
2008,09,28,01,22,9.90
2008,09,28,01,23,9.90
2008,09,28,01,24,9.90
2008,09,28,01,25,9.90
2008,09,28,01,26,9.90
2008,09,28,01,27,9.90
2008,09,28,01,28,9.90
2008,09,28,01,29,9.90
2008,09,28,01,30,9.90
2008,09,28,01,31,9.90
2008,09,28,01,32,9.90
2008,09,28,01,33,9.90
2008,09,28,01,34,9.90
2008,09,28,01,35,9.90
2008,09,28,01,36,9.90
2008,09,28,01,37,9.90
2008,09,28,01,38,9.90
2008,09,28,01,39,9.90
2008,09,28,01,40,9.90
2008,09,28,01,41,9.90
2008,09,28,01,42,9.90
2008,09,28,01,43,9.90
2008,09,28,01,44,9.90
2008,09,28,01,45,9.80
2008,09,28,01,46,9.80
2008,09,28,01,47,9.80
2008,09,28,01,48,9.80
2008,09,28,01,49,9.80
2008,09,28,01,50,9.80
2008,09,28,01,51,9.80
2008,09,28,01,52,9.70
2008,09,28,01,53,9.70
2008,09,28,01,54,9.70
2008,09,28,01,55,9.70
2008,09,28,01,56,9.70
2008,09,28,01,57,9.70
2008,09,28,01,58,9.70
2008,09,28,01,59,9.70
2008,09,28,02,00,9.60
2008,09,28,02,01,9.60
2008,09,28,02,02,9.60
2008,09,28,02,03,9.60
2008,09,28,02,04,9.60
2008,09,28,02,05,9.60
2008,09,28,02,06,9.60
2008,09,28,02,07,9.50
2008,09,28,02,08,9.50
2008,09,28,02,09,9.50
2008,09,28,02,10,9.50
2008,09,28,02,11,9.40
2008,09,28,02,12,9.40
2008,09,28,02,13,9.40
2008,09,28,02,14,9.50
2008,09,28,02,15,9.50
2008,09,28,02,16,9.50
2008,09,28,02,17,9.50
2008,09,28,02,18,9.50
2008,09,28,02,19,9.50
2008,09,28,02,20,9.50
2008,09,28,02,21,9.60
2008,09,28,02,22,9.60
2008,09,28,02,23,9.60
2008,09,28,02,24,9.60
2008,09,28,02,25,9.60
2008,09,28,02,26,9.60
2008,09,28,02,27,9.60
2008,09,28,02,28,9.60
2008,09,28,02,29,9.60
2008,09,28,02,30,9.60
2008,09,28,02,31,9.60
2008,09,28,02,32,9.60
2008,09,28,02,33,9.50
2008,09,28,02,34,9.50
2008,09,28,02,35,9.50
2008,09,28,02,36,9.50
2008,09,28,02,37,9.40
2008,09,28,02,38,9.40
2008,09,28,02,39,9.40
2008,09,28,02,40,9.40
2008,09,28,02,41,9.40
2008,09,28,02,42,9.40
2008,09,28,02,43,9.40
2008,09,28,02,44,9.40
2008,09,28,02,45,9.40
2008,09,28,02,46,9.40
2008,09,28,02,47,9.40
2008,09,28,02,48,9.40
2008,09,28,02,49,9.40
2008,09,28,02,50,9.40
2008,09,28,02,51,9.40
2008,09,28,02,52,9.30
2008,09,28,02,53,9.30
2008,09,28,02,54,9.30
2008,09,28,02,55,9.30
2008,09,28,02,56,9.30
2008,09,28,02,57,9.30
2008,09,28,02,58,9.20
2008,09,28,02,59,9.20
2008,09,28,03,00,9.30
2008,09,28,03,01,9.30
2008,09,28,03,02,9.20
2008,09,28,03,03,9.30
2008,09,28,03,04,9.30
2008,09,28,03,05,9.30
2008,09,28,03,06,9.20
2008,09,28,03,07,9.20
2008,09,28,03,08,9.20
2008,09,28,03,09,9.20
2008,09,28,03,10,9.20
2008,09,28,03,11,9.20
2008,09,28,03,12,9.20
2008,09,28,03,13,9.20
2008,09,28,03,14,9.20
2008,09,28,03,15,9.20
2008,09,28,03,16,9.20
2008,09,28,03,17,9.20
2008,09,28,03,18,9.20
2008,09,28,03,19,9.10
2008,09,28,03,20,9.10
2008,09,28,03,21,9.10
2008,09,28,03,22,9.10
2008,09,28,03,23,9.10
2008,09,28,03,24,9.10
2008,09,28,03,25,9.10
2008,09,28,03,26,9.10
2008,09,28,03,27,9.10
2008,09,28,03,28,9.10
2008,09,28,03,29,9.10
2008,09,28,03,30,9.10
2008,09,28,03,31,9.00
2008,09,28,03,32,9.00
2008,09,28,03,33,9.00
2008,09,28,03,34,9.00
2008,09,28,03,35,9.00
2008,09,28,03,36,9.00
2008,09,28,03,37,9.00
2008,09,28,03,38,8.90
2008,09,28,03,39,8.90
2008,09,28,03,40,8.90
2008,09,28,03,41,8.90
2008,09,28,03,42,8.90
2008,09,28,03,43,8.90
2008,09,28,03,44,8.90
2008,09,28,03,45,8.90
2008,09,28,03,46,8.90
2008,09,28,03,47,8.90
2008,09,28,03,48,8.90
2008,09,28,03,49,8.90
2008,09,28,03,50,8.90
2008,09,28,03,51,8.90
2008,09,28,03,52,8.80
2008,09,28,03,53,8.80
2008,09,28,03,54,8.80
2008,09,28,03,55,8.80
2008,09,28,03,56,8.80
2008,09,28,03,57,8.80
2008,09,28,03,58,8.80
2008,09,28,03,59,8.70
2008,09,28,04,00,8.70
2008,09,28,04,01,8.70
2008,09,28,04,02,8.70
2008,09,28,04,03,8.70
2008,09,28,04,04,8.60
2008,09,28,04,05,8.60
2008,09,28,04,06,8.60
2008,09,28,04,07,8.60
2008,09,28,04,08,8.60
2008,09,28,04,09,8.60
2008,09,28,04,10,8.60
2008,09,28,04,11,8.60
2008,09,28,04,12,8.60
2008,09,28,04,13,8.60
2008,09,28,04,14,8.60
2008,09,28,04,15,8.60
2008,09,28,04,16,8.60
2008,09,28,04,17,8.60
2008,09,28,04,18,8.60
2008,09,28,04,19,8.60
2008,09,28,04,20,8.60
2008,09,28,04,21,8.60
2008,09,28,04,22,8.60
2008,09,28,04,23,8.60
2008,09,28,04,24,8.60
2008,09,28,04,25,8.60
2008,09,28,04,26,8.60
2008,09,28,04,27,8.60
2008,09,28,04,28,8.60
2008,09,28,04,29,8.60
2008,09,28,04,30,8.60
2008,09,28,04,31,8.60
2008,09,28,04,32,8.60
2008,09,28,04,33,8.60
2008,09,28,04,34,8.60
2008,09,28,04,35,8.60
2008,09,28,04,36,8.60
2008,09,28,04,37,8.60
2008,09,28,04,38,8.60
2008,09,28,04,39,8.60
2008,09,28,04,40,8.60
2008,09,28,04,41,8.60
2008,09,28,04,42,8.60
2008,09,28,04,43,8.60
2008,09,28,04,44,8.50
2008,09,28,04,45,8.50
2008,09,28,04,46,8.50
2008,09,28,04,47,8.50
2008,09,28,04,48,8.40
2008,09,28,04,49,8.40
2008,09,28,04,50,8.40
2008,09,28,04,51,8.40
2008,09,28,04,52,8.40
2008,09,28,04,53,8.40
2008,09,28,04,54,8.40
2008,09,28,04,55,8.40
2008,09,28,04,56,8.30
2008,09,28,04,57,8.30
2008,09,28,04,58,8.30
2008,09,28,04,59,8.30
2008,09,28,05,00,8.30
2008,09,28,05,01,8.30
2008,09,28,05,02,8.30
2008,09,28,05,03,8.30
2008,09,28,05,04,8.30
2008,09,28,05,05,8.30
2008,09,28,05,06,8.30
2008,09,28,05,07,8.30
2008,09,28,05,08,8.30
2008,09,28,05,09,8.30
2008,09,28,05,10,8.30
2008,09,28,05,11,8.30
2008,09,28,05,12,8.30
2008,09,28,05,13,8.20
2008,09,28,05,14,8.20
2008,09,28,05,15,8.20
2008,09,28,05,16,8.20
2008,09,28,05,17,8.20
2008,09,28,05,18,8.20
2008,09,28,05,19,8.20
2008,09,28,05,20,8.30
2008,09,28,05,21,8.30
2008,09,28,05,22,8.30
2008,09,28,05,23,8.30
2008,09,28,05,24,8.20
2008,09,28,05,25,8.20
2008,09,28,05,26,8.20
2008,09,28,05,27,8.20
2008,09,28,05,28,8.20
2008,09,28,05,29,8.20
2008,09,28,05,30,8.20
2008,09,28,05,31,8.20
2008,09,28,05,32,8.10
2008,09,28,05,33,8.10
2008,09,28,05,34,8.10
2008,09,28,05,35,8.10
2008,09,28,05,36,8.10
2008,09,28,05,37,8.10
2008,09,28,05,38,8.10
2008,09,28,05,39,8.10
2008,09,28,05,40,8.10
2008,09,28,05,41,8.10
2008,09,28,05,42,8.10
2008,09,28,05,43,8.10
2008,09,28,05,44,8.10
2008,09,28,05,45,8.00
2008,09,28,05,46,8.00
2008,09,28,05,47,8.00
2008,09,28,05,48,8.00
2008,09,28,05,49,8.10
2008,09,28,05,50,8.10
2008,09,28,05,51,8.10
2008,09,28,05,52,8.10
2008,09,28,05,53,8.10
2008,09,28,05,54,8.10
2008,09,28,05,55,8.10
2008,09,28,05,56,8.10
2008,09,28,05,57,8.10
2008,09,28,05,58,8.10
2008,09,28,05,59,8.10
2008,09,28,06,00,8.10
2008,09,28,06,01,8.10
2008,09,28,06,02,8.10
2008,09,28,06,03,8.10
2008,09,28,06,04,8.10
2008,09,28,06,05,8.10
2008,09,28,06,06,8.10
2008,09,28,06,07,8.10
2008,09,28,06,08,8.10
2008,09,28,06,09,8.00
2008,09,28,06,10,8.00
2008,09,28,06,11,8.00
2008,09,28,06,12,7.90
2008,09,28,06,13,7.90
2008,09,28,06,14,7.90
2008,09,28,06,15,7.90
2008,09,28,06,16,7.90
2008,09,28,06,17,7.90
2008,09,28,06,18,7.80
2008,09,28,06,19,7.80
2008,09,28,06,20,7.80
2008,09,28,06,21,7.80
2008,09,28,06,22,7.80
2008,09,28,06,23,7.80
2008,09,28,06,24,7.80
2008,09,28,06,25,7.80
2008,09,28,06,26,7.80
2008,09,28,06,27,7.80
2008,09,28,06,28,7.80
2008,09,28,06,29,7.80
2008,09,28,06,30,7.70
2008,09,28,06,31,7.70
2008,09,28,06,32,7.70
2008,09,28,06,33,7.70
2008,09,28,06,34,7.70
2008,09,28,06,35,7.70
2008,09,28,06,36,7.70
2008,09,28,06,37,7.70
2008,09,28,06,38,7.60
2008,09,28,06,39,7.60
2008,09,28,06,40,7.60
2008,09,28,06,41,7.60
2008,09,28,06,42,7.60
2008,09,28,06,43,7.60
2008,09,28,06,44,7.50
2008,09,28,06,45,7.50
2008,09,28,06,46,7.50
2008,09,28,06,47,7.50
2008,09,28,06,48,7.50
2008,09,28,06,49,7.50
2008,09,28,06,50,7.50
2008,09,28,06,51,7.50
2008,09,28,06,52,7.50
2008,09,28,06,53,7.50
2008,09,28,06,54,7.40
2008,09,28,06,55,7.40
2008,09,28,06,56,7.40
2008,09,28,06,57,7.40
2008,09,28,06,58,7.40
2008,09,28,06,59,7.40
2008,09,28,07,00,7.40
2008,09,28,07,01,7.40
2008,09,28,07,02,7.40
2008,09,28,07,03,7.40
2008,09,28,07,04,7.40
2008,09,28,07,05,7.40
2008,09,28,07,06,7.40
2008,09,28,07,07,7.40
2008,09,28,07,08,7.30
2008,09,28,07,09,7.30
2008,09,28,07,10,7.30
2008,09,28,07,11,7.30
2008,09,28,07,12,7.30
2008,09,28,07,13,7.30
2008,09,28,07,14,7.30
2008,09,28,07,15,7.30
2008,09,28,07,16,7.30
2008,09,28,07,17,7.30
2008,09,28,07,18,7.30
2008,09,28,07,19,7.30
2008,09,28,07,20,7.30
2008,09,28,07,21,7.30
2008,09,28,07,22,7.30
2008,09,28,07,23,7.30
2008,09,28,07,24,7.30
2008,09,28,07,25,7.30
2008,09,28,07,26,7.30
2008,09,28,07,27,7.30
2008,09,28,07,28,7.30
2008,09,28,07,29,7.30
2008,09,28,07,30,7.30
2008,09,28,07,31,7.30
2008,09,28,07,32,7.30
2008,09,28,07,33,7.30
2008,09,28,07,34,7.30
2008,09,28,07,35,7.30
2008,09,28,07,36,7.30
2008,09,28,07,37,7.30
2008,09,28,07,38,7.30
2008,09,28,07,39,7.30
2008,09,28,07,40,7.30
2008,09,28,07,41,7.30
2008,09,28,07,42,7.40
2008,09,28,07,43,7.40
2008,09,28,07,44,7.40
2008,09,28,07,45,7.40
2008,09,28,07,46,7.40
2008,09,28,07,47,7.40
2008,09,28,07,48,7.40
2008,09,28,07,49,7.40
2008,09,28,07,50,7.40
2008,09,28,07,51,7.40
2008,09,28,07,52,7.40
2008,09,28,07,53,7.40
2008,09,28,07,54,7.40
2008,09,28,07,55,7.40
2008,09,28,07,56,7.40
2008,09,28,07,57,7.50
2008,09,28,07,58,7.50
2008,09,28,07,59,7.50
2008,09,28,08,00,7.50
2008,09,28,08,01,7.50
2008,09,28,08,02,7.50
2008,09,28,08,03,7.50
2008,09,28,08,04,7.50
2008,09,28,08,05,7.60
2008,09,28,08,06,7.60
2008,09,28,08,07,7.60
2008,09,28,08,08,7.60
2008,09,28,08,09,7.60
2008,09,28,08,10,7.60
2008,09,28,08,11,7.60
2008,09,28,08,12,7.70
2008,09,28,08,13,7.70
2008,09,28,08,14,7.70
2008,09,28,08,15,7.70
2008,09,28,08,16,7.70
2008,09,28,08,17,7.70
2008,09,28,08,18,7.70
2008,09,28,08,19,7.70
2008,09,28,08,20,7.70
2008,09,28,08,21,7.70
2008,09,28,08,22,7.70
2008,09,28,08,23,7.70
2008,09,28,08,24,7.70
2008,09,28,08,25,7.70
2008,09,28,08,26,7.70
2008,09,28,08,27,7.70
2008,09,28,08,28,7.70
2008,09,28,08,29,7.70
2008,09,28,08,30,7.70
2008,09,28,08,31,7.70
2008,09,28,08,32,7.80
2008,09,28,08,33,7.80
2008,09,28,08,34,7.80
2008,09,28,08,35,7.80
2008,09,28,08,36,7.80
2008,09,28,08,37,7.80
2008,09,28,08,38,7.90
2008,09,28,08,39,7.90
2008,09,28,08,40,8.00
2008,09,28,08,41,8.10
2008,09,28,08,42,8.20
2008,09,28,08,43,8.20
2008,09,28,08,44,8.30
2008,09,28,08,45,8.30
2008,09,28,08,46,8.30
2008,09,28,08,47,8.40
2008,09,28,08,48,8.50
2008,09,28,08,49,8.60
2008,09,28,08,50,8.70
2008,09,28,08,51,8.80
2008,09,28,08,52,8.80
2008,09,28,08,53,8.80
2008,09,28,08,54,8.80
2008,09,28,08,55,8.80
2008,09,28,08,56,8.80
2008,09,28,08,57,8.80
2008,09,28,08,58,8.80
2008,09,28,08,59,8.80
2008,09,28,09,00,8.80
2008,09,28,09,01,8.90
2008,09,28,09,02,8.90
2008,09,28,09,03,8.90
2008,09,28,09,04,8.90
2008,09,28,09,05,8.90
2008,09,28,09,06,8.90
2008,09,28,09,07,9.00
2008,09,28,09,08,9.00
2008,09,28,09,09,9.00
2008,09,28,09,10,9.10
2008,09,28,09,11,9.10
2008,09,28,09,12,9.10
2008,09,28,09,13,9.20
2008,09,28,09,14,9.20
2008,09,28,09,15,9.30
2008,09,28,09,16,9.30
2008,09,28,09,17,9.30
2008,09,28,09,18,9.30
2008,09,28,09,19,9.30
2008,09,28,09,20,9.30
2008,09,28,09,21,9.40
2008,09,28,09,22,9.40
2008,09,28,09,23,9.50
2008,09,28,09,24,9.50
2008,09,28,09,25,9.60
2008,09,28,09,26,9.60
2008,09,28,09,27,9.60
2008,09,28,09,28,9.60
2008,09,28,09,29,9.70
2008,09,28,09,30,9.70
2008,09,28,09,31,9.80
2008,09,28,09,32,9.80
2008,09,28,09,33,9.80
2008,09,28,09,34,9.80
2008,09,28,09,35,9.90
2008,09,28,09,36,9.90
2008,09,28,09,37,10.00
2008,09,28,09,38,10.10
2008,09,28,09,39,10.10
2008,09,28,09,40,10.10
2008,09,28,09,41,10.20
2008,09,28,09,42,10.20
2008,09,28,09,43,10.30
2008,09,28,09,44,10.30
2008,09,28,09,45,10.30
2008,09,28,09,46,10.40
2008,09,28,09,47,10.40
2008,09,28,09,48,10.40
2008,09,28,09,49,10.50
2008,09,28,09,50,10.50
2008,09,28,09,51,10.60
2008,09,28,09,52,10.60
2008,09,28,09,53,10.60
2008,09,28,09,54,10.70
2008,09,28,09,55,10.80
2008,09,28,09,56,10.80
2008,09,28,09,57,10.80
2008,09,28,09,58,10.90
2008,09,28,09,59,10.90
2008,09,28,10,00,10.90
2008,09,28,10,01,11.00
2008,09,28,10,02,11.00
2008,09,28,10,03,11.10
2008,09,28,10,04,11.20
2008,09,28,10,05,11.20
2008,09,28,10,06,11.30
2008,09,28,10,07,11.30
2008,09,28,10,08,11.30
2008,09,28,10,09,11.40
2008,09,28,10,10,11.40
2008,09,28,10,11,11.40
2008,09,28,10,12,11.40
2008,09,28,10,13,11.40
2008,09,28,10,14,11.50
2008,09,28,10,15,11.60
2008,09,28,10,16,11.60
2008,09,28,10,17,11.60
2008,09,28,10,18,11.70
2008,09,28,10,19,11.70
2008,09,28,10,20,11.80
2008,09,28,10,21,11.80
2008,09,28,10,22,11.90
2008,09,28,10,23,11.90
2008,09,28,10,24,11.90
2008,09,28,10,25,12.00
2008,09,28,10,26,12.00
2008,09,28,10,27,12.10
2008,09,28,10,28,12.10
2008,09,28,10,29,12.10
2008,09,28,10,30,12.20
2008,09,28,10,31,12.20
2008,09,28,10,32,12.20
2008,09,28,10,33,12.20
2008,09,28,10,34,12.30
2008,09,28,10,35,12.30
2008,09,28,10,36,12.30
2008,09,28,10,37,12.40
2008,09,28,10,38,12.40
2008,09,28,10,39,12.50
2008,09,28,10,40,12.60
2008,09,28,10,41,12.70
2008,09,28,10,42,12.70
2008,09,28,10,43,12.80
2008,09,28,10,44,12.80
2008,09,28,10,45,12.90
2008,09,28,10,46,13.00
2008,09,28,10,47,13.00
2008,09,28,10,48,13.00
2008,09,28,10,49,13.10
2008,09,28,10,50,13.10
2008,09,28,10,51,13.20
2008,09,28,10,52,13.30
2008,09,28,10,53,13.40
2008,09,28,10,54,13.40
2008,09,28,10,55,13.50
2008,09,28,10,56,13.50
2008,09,28,10,57,13.50
2008,09,28,10,58,13.60
2008,09,28,10,59,13.60
2008,09,28,11,00,13.70
2008,09,28,11,01,13.70
2008,09,28,11,02,13.80
2008,09,28,11,03,13.90
2008,09,28,11,04,13.90
2008,09,28,11,05,14.00
2008,09,28,11,06,14.00
2008,09,28,11,07,14.10
2008,09,28,11,08,14.20
2008,09,28,11,09,14.20
2008,09,28,11,10,14.30
2008,09,28,11,11,14.30
2008,09,28,11,12,14.40
2008,09,28,11,13,14.40
2008,09,28,11,14,14.50
2008,09,28,11,15,14.60
2008,09,28,11,16,14.60
2008,09,28,11,17,14.70
2008,09,28,11,18,14.80
2008,09,28,11,19,14.90
2008,09,28,11,20,14.90
2008,09,28,11,21,14.90
2008,09,28,11,22,14.90
2008,09,28,11,23,14.90
2008,09,28,11,24,14.80
2008,09,28,11,25,14.80
2008,09,28,11,26,14.80
2008,09,28,11,27,14.80
2008,09,28,11,28,14.80
2008,09,28,11,29,14.80
2008,09,28,11,30,14.80
2008,09,28,11,31,14.80
2008,09,28,11,32,14.80
2008,09,28,11,33,14.90
2008,09,28,11,34,15.00
2008,09,28,11,35,15.00
2008,09,28,11,36,15.00
2008,09,28,11,37,15.00
2008,09,28,11,38,15.20
2008,09,28,11,39,15.30
2008,09,28,11,40,15.40
2008,09,28,11,41,15.50
2008,09,28,11,42,15.60
2008,09,28,11,43,15.70
2008,09,28,11,44,15.80
2008,09,28,11,45,15.90
2008,09,28,11,46,16.00
2008,09,28,11,47,16.10
2008,09,28,11,48,16.20
2008,09,28,11,49,16.30
2008,09,28,11,50,16.40
2008,09,28,11,51,16.40
2008,09,28,11,52,16.50
2008,09,28,11,53,16.60
2008,09,28,11,54,16.70
2008,09,28,11,55,16.80
2008,09,28,11,56,16.90
2008,09,28,11,57,17.00
2008,09,28,11,58,17.10
2008,09,28,11,59,17.20
2008,09,28,12,00,17.20
2008,09,28,12,01,17.30
2008,09,28,12,02,17.30
2008,09,28,12,03,17.30
2008,09,28,12,04,17.30
2008,09,28,12,05,17.40
2008,09,28,12,06,17.40
2008,09,28,12,07,17.40
2008,09,28,12,08,17.50
2008,09,28,12,09,17.50
2008,09,28,12,10,17.50
2008,09,28,12,11,17.60
2008,09,28,12,12,17.60
2008,09,28,12,13,17.60
2008,09,28,12,14,17.60
2008,09,28,12,15,17.70
2008,09,28,12,16,17.70
2008,09,28,12,17,17.80
2008,09,28,12,18,17.90
2008,09,28,12,19,17.90
2008,09,28,12,20,18.00
2008,09,28,12,21,18.10
2008,09,28,12,22,18.10
2008,09,28,12,23,18.10
2008,09,28,12,24,18.20
2008,09,28,12,25,18.20
2008,09,28,12,26,18.20
2008,09,28,12,27,18.20
2008,09,28,12,28,18.30
2008,09,28,12,29,18.30
2008,09,28,12,30,18.30
2008,09,28,12,31,18.30
2008,09,28,12,32,18.30
2008,09,28,12,33,18.30
2008,09,28,12,34,18.20
2008,09,28,12,35,18.20
2008,09,28,12,36,18.10
2008,09,28,12,37,18.10
2008,09,28,12,38,18.00
2008,09,28,12,39,18.00
2008,09,28,12,40,17.90
2008,09,28,12,41,17.90
2008,09,28,12,42,17.80
2008,09,28,12,43,17.70
2008,09,28,12,44,17.60
2008,09,28,12,45,17.50
2008,09,28,12,46,17.50
2008,09,28,12,47,17.40
2008,09,28,12,48,17.30
2008,09,28,12,49,17.30
2008,09,28,12,50,17.20
2008,09,28,12,51,17.10
2008,09,28,12,52,17.10
2008,09,28,12,53,17.10
2008,09,28,12,54,17.10
2008,09,28,12,55,17.10
2008,09,28,12,56,17.10
2008,09,28,12,57,17.10
2008,09,28,12,58,17.10
2008,09,28,12,59,17.20
2008,09,28,13,00,17.20
2008,09,28,13,01,17.30
2008,09,28,13,02,17.30
2008,09,28,13,03,17.40
2008,09,28,13,04,17.50
2008,09,28,13,05,17.60
2008,09,28,13,06,17.60
2008,09,28,13,07,17.60
2008,09,28,13,08,17.60
2008,09,28,13,09,17.60
2008,09,28,13,10,17.60
2008,09,28,13,11,17.70
2008,09,28,13,12,17.70
2008,09,28,13,13,17.60
2008,09,28,13,14,17.60
2008,09,28,13,15,17.60
2008,09,28,13,16,17.60
2008,09,28,13,17,17.70
2008,09,28,13,18,17.70
2008,09,28,13,19,17.80
2008,09,28,13,20,17.80
2008,09,28,13,21,17.80
2008,09,28,13,22,17.70
2008,09,28,13,23,17.80
2008,09,28,13,24,17.80
2008,09,28,13,25,17.80
2008,09,28,13,26,17.80
2008,09,28,13,27,17.90
2008,09,28,13,28,17.90
2008,09,28,13,29,18.10
2008,09,28,13,30,18.20
2008,09,28,13,31,18.20
2008,09,28,13,32,18.30
2008,09,28,13,33,18.30
2008,09,28,13,34,18.40
2008,09,28,13,35,18.40
2008,09,28,13,36,18.50
2008,09,28,13,37,18.60
2008,09,28,13,38,18.70
2008,09,28,13,39,18.70
2008,09,28,13,40,18.80
2008,09,28,13,41,18.80
2008,09,28,13,42,18.80
2008,09,28,13,43,18.70
2008,09,28,13,44,18.60
2008,09,28,13,45,18.50
2008,09,28,13,46,18.40
2008,09,28,13,47,18.40
2008,09,28,13,48,18.30
2008,09,28,13,49,18.30
2008,09,28,13,50,18.30
2008,09,28,13,51,18.30
2008,09,28,13,52,18.20
2008,09,28,13,53,18.20
2008,09,28,13,54,18.30
2008,09,28,13,55,18.30
2008,09,28,13,56,18.40
2008,09,28,13,57,18.40
2008,09,28,13,58,18.40
2008,09,28,13,59,18.50
2008,09,28,14,00,18.60
2008,09,28,14,01,18.70
2008,09,28,14,02,18.70
2008,09,28,14,03,18.80
2008,09,28,14,04,18.80
2008,09,28,14,05,18.80
2008,09,28,14,06,18.90
2008,09,28,14,07,19.00
2008,09,28,14,08,19.10
2008,09,28,14,09,19.20
2008,09,28,14,10,19.30
2008,09,28,14,11,19.40
2008,09,28,14,12,19.40
2008,09,28,14,13,19.50
2008,09,28,14,14,19.60
2008,09,28,14,15,19.60
2008,09,28,14,16,19.70
2008,09,28,14,17,19.70
2008,09,28,14,18,19.80
2008,09,28,14,19,19.80
2008,09,28,14,20,19.90
2008,09,28,14,21,20.00
2008,09,28,14,22,20.00
2008,09,28,14,23,20.00
2008,09,28,14,24,20.10
2008,09,28,14,25,20.10
2008,09,28,14,26,20.10
2008,09,28,14,27,20.10
2008,09,28,14,28,20.10
2008,09,28,14,29,20.00
2008,09,28,14,30,20.00
2008,09,28,14,31,20.00
2008,09,28,14,32,20.00
2008,09,28,14,33,20.00
2008,09,28,14,34,20.10
2008,09,28,14,35,20.10
2008,09,28,14,36,20.10
2008,09,28,14,37,20.10
2008,09,28,14,38,20.10
2008,09,28,14,39,20.10
2008,09,28,14,40,20.20
2008,09,28,14,41,20.20
2008,09,28,14,42,20.20
2008,09,28,14,43,20.20
2008,09,28,14,44,20.10
2008,09,28,14,45,20.00
2008,09,28,14,46,19.90
2008,09,28,14,47,19.90
2008,09,28,14,48,19.90
2008,09,28,14,49,20.00
2008,09,28,14,50,20.00
2008,09,28,14,51,20.10
2008,09,28,14,52,20.20
2008,09,28,14,53,20.30
2008,09,28,14,54,20.40
2008,09,28,14,55,20.40
2008,09,28,14,56,20.40
2008,09,28,14,57,20.40
2008,09,28,14,58,20.40
2008,09,28,14,59,20.40
2008,09,28,15,00,20.30
2008,09,28,15,01,20.30
2008,09,28,15,02,20.30
2008,09,28,15,03,20.30
2008,09,28,15,04,20.20
2008,09,28,15,05,20.30
2008,09,28,15,06,20.30
2008,09,28,15,07,20.30
2008,09,28,15,08,20.30
2008,09,28,15,09,20.40
2008,09,28,15,10,20.40
2008,09,28,15,11,20.40
2008,09,28,15,12,20.40
2008,09,28,15,13,20.40
2008,09,28,15,14,20.40
2008,09,28,15,15,20.40
2008,09,28,15,16,20.40
2008,09,28,15,17,20.40
2008,09,28,15,18,20.30
2008,09,28,15,19,20.30
2008,09,28,15,20,20.30
2008,09,28,15,21,20.30
2008,09,28,15,22,20.30
2008,09,28,15,23,20.30
2008,09,28,15,24,20.30
2008,09,28,15,25,20.30
2008,09,28,15,26,20.30
2008,09,28,15,27,20.30
2008,09,28,15,28,20.30
2008,09,28,15,29,20.40
2008,09,28,15,30,20.40
2008,09,28,15,31,20.40
2008,09,28,15,32,20.40
2008,09,28,15,33,20.30
2008,09,28,15,34,20.30
2008,09,28,15,35,20.30
2008,09,28,15,36,20.20
2008,09,28,15,37,20.10
2008,09,28,15,38,20.00
2008,09,28,15,39,19.90
2008,09,28,15,40,19.80
2008,09,28,15,41,19.70
2008,09,28,15,42,19.50
2008,09,28,15,43,19.40
2008,09,28,15,44,19.30
2008,09,28,15,45,19.30
2008,09,28,15,46,19.20
2008,09,28,15,47,19.20
2008,09,28,15,48,19.20
2008,09,28,15,49,19.20
2008,09,28,15,50,19.20
2008,09,28,15,51,19.20
2008,09,28,15,52,19.20
2008,09,28,15,53,19.10
2008,09,28,15,54,19.10
2008,09,28,15,55,19.00
2008,09,28,15,56,19.00
2008,09,28,15,57,18.90
2008,09,28,15,58,18.90
2008,09,28,15,59,18.90
2008,09,28,16,00,18.90
2008,09,28,16,01,18.90
2008,09,28,16,02,18.80
2008,09,28,16,03,18.80
2008,09,28,16,04,18.90
2008,09,28,16,05,18.90
2008,09,28,16,06,18.90
2008,09,28,16,07,18.90
2008,09,28,16,08,18.90
2008,09,28,16,09,19.00
2008,09,28,16,10,19.00
2008,09,28,16,11,19.10
2008,09,28,16,12,19.20
2008,09,28,16,13,19.30
2008,09,28,16,14,19.30
2008,09,28,16,15,19.30
2008,09,28,16,16,19.20
2008,09,28,16,17,19.10
2008,09,28,16,18,19.20
2008,09,28,16,19,19.20
2008,09,28,16,20,19.20
2008,09,28,16,21,19.30
2008,09,28,16,22,19.50
2008,09,28,16,23,19.50
2008,09,28,16,24,19.70
2008,09,28,16,25,19.80
2008,09,28,16,26,19.90
2008,09,28,16,27,20.00
2008,09,28,16,28,20.00
2008,09,28,16,29,20.10
2008,09,28,16,30,20.10
2008,09,28,16,31,20.20
2008,09,28,16,32,20.30
2008,09,28,16,33,20.30
2008,09,28,16,34,20.40
2008,09,28,16,35,20.40
2008,09,28,16,36,20.40
2008,09,28,16,37,20.40
2008,09,28,16,38,20.30
2008,09,28,16,39,20.20
2008,09,28,16,40,20.20
2008,09,28,16,41,20.20
2008,09,28,16,42,20.30
2008,09,28,16,43,20.30
2008,09,28,16,44,20.40
2008,09,28,16,45,20.40
2008,09,28,16,46,20.50
2008,09,28,16,47,20.50
2008,09,28,16,48,20.50
2008,09,28,16,49,20.50
2008,09,28,16,50,20.50
2008,09,28,16,51,20.50
2008,09,28,16,52,20.30
2008,09,28,16,53,20.20
2008,09,28,16,54,20.20
2008,09,28,16,55,20.10
2008,09,28,16,56,20.00
2008,09,28,16,57,20.00
2008,09,28,16,58,20.00
2008,09,28,16,59,20.00
2008,09,28,17,00,19.90
2008,09,28,17,01,19.90
2008,09,28,17,02,19.90
2008,09,28,17,03,19.90
2008,09,28,17,04,19.90
2008,09,28,17,05,19.90
2008,09,28,17,06,19.90
2008,09,28,17,07,20.00
2008,09,28,17,08,19.90
2008,09,28,17,09,20.00
2008,09,28,17,10,19.90
2008,09,28,17,11,19.90
2008,09,28,17,12,19.80
2008,09,28,17,13,19.70
2008,09,28,17,14,19.60
2008,09,28,17,15,19.40
2008,09,28,17,16,19.30
2008,09,28,17,17,19.20
2008,09,28,17,18,19.00
2008,09,28,17,19,18.70
2008,09,28,17,20,18.60
2008,09,28,17,21,18.50
2008,09,28,17,22,18.40
2008,09,28,17,23,18.40
2008,09,28,17,24,18.30
2008,09,28,17,25,18.20
2008,09,28,17,26,18.20
2008,09,28,17,27,18.20
2008,09,28,17,28,18.20
2008,09,28,17,29,18.10
2008,09,28,17,30,18.10
2008,09,28,17,31,18.00
2008,09,28,17,32,17.90
2008,09,28,17,33,17.90
2008,09,28,17,34,17.80
2008,09,28,17,35,17.80
2008,09,28,17,36,17.70
2008,09,28,17,37,17.70
2008,09,28,17,38,17.70
2008,09,28,17,39,17.60
2008,09,28,17,40,17.50
2008,09,28,17,41,17.40
2008,09,28,17,42,17.40
2008,09,28,17,43,17.30
2008,09,28,17,44,17.20
2008,09,28,17,45,17.20
2008,09,28,17,46,17.10
2008,09,28,17,47,17.10
2008,09,28,17,48,17.00
2008,09,28,17,49,16.90
2008,09,28,17,50,16.90
2008,09,28,17,51,16.90
2008,09,28,17,52,16.80
2008,09,28,17,53,16.70
2008,09,28,17,54,16.70
2008,09,28,17,55,16.70
2008,09,28,17,56,16.70
2008,09,28,17,57,16.70
2008,09,28,17,58,16.70
2008,09,28,17,59,16.60
2008,09,28,18,00,16.60
2008,09,28,18,01,16.60
2008,09,28,18,02,16.50
2008,09,28,18,03,16.40
2008,09,28,18,04,16.40
2008,09,28,18,05,16.30
2008,09,28,18,06,16.20
2008,09,28,18,07,16.10
2008,09,28,18,08,16.00
2008,09,28,18,09,15.90
2008,09,28,18,10,15.80
2008,09,28,18,11,15.70
2008,09,28,18,12,15.70
2008,09,28,18,13,15.60
2008,09,28,18,14,15.50
2008,09,28,18,15,15.40
2008,09,28,18,16,15.30
2008,09,28,18,17,15.20
2008,09,28,18,18,15.00
2008,09,28,18,19,15.00
2008,09,28,18,20,15.00
2008,09,28,18,21,14.80
2008,09,28,18,22,14.80
2008,09,28,18,23,14.70
2008,09,28,18,24,14.60
2008,09,28,18,25,14.60
2008,09,28,18,26,14.50
2008,09,28,18,27,14.40
2008,09,28,18,28,14.30
2008,09,28,18,29,14.20